Home   Weather   Kranj   Past weeks

Flag for Slovenia Past Weather in Kranj, Slovenia — Yesterday and Last 2 Weeks

43 °F


Feels Like: 43 °F
Forecast: 39 / 60 °F
Wind: 1 mph from West

Location: Ljubljana Airport / Brnik

Current Time: Oct 23, 2016 at 11:49:45 AM

Latest Report: Oct 23, 2016 at 11:30 AM

Visibility: 2 mi

Pressure: 30.09 "Hg

Humidity: 93%

Dew Point: 41 °F

Location of KranjLocation

Past Weather in Kranj — Graph


Kranj Temperature Yesterday

Maximum temperature yesterday: 50 °F (at 3:30 PM)
Minimum temperature yesterday: 34 °F (at 4:00 AM)
Average temperature yesterday: 40 °F

High & Low Weather Summary for the Past Weeks

High61 °F (Oct 17, 12:30 PM)100% (Oct 9, 10:00 PM)30.30 "Hg (Oct 9, 10:00 PM)
Low28 °F (Oct 13, 7:00 AM)48% (Oct 12, 4:00 PM)29.89 "Hg (Oct 11, 4:00 PM)
Average46 °F90%30.08 "Hg
* Reported Oct 8 10:00 AM — Oct 23 10:30 AM, Kranj, Weather by CustomWeather, © 2016

Note: Actual official high and low records may vary slightly from our data, if they occured in-between our weather recording intervals... More about our weather records


Kranj Weather History for the Previous 24 Hours

Scroll right to see more
Time TempWeatherWind HumidityBarometerVisibility
10:30 AM
Sun, Oct 23
41 °FFog.1 mph93%30.09 "Hg1 mi
10:00 AM41 °FFog.1 mph93%30.09 "Hg1 mi
9:30 AM39 °FFog.5 mph100%30.07 "Hg1 mi
9:00 AM39 °FFog.5 mph100%30.09 "Hg2 mi
8:30 AM41 °FFog.5 mph93%30.07 "Hg2 mi
8:00 AM41 °FFog.1 mph93%30.07 "Hg2 mi
7:30 AM41 °FFog.2 mph93%30.07 "Hg1 mi
7:00 AM39 °FFog.1 mph100%30.07 "Hg1 mi
6:30 AM41 °FFog.1 mph93%30.07 "Hg2 mi
6:00 AM39 °FFog.No wind100%30.07 "Hg0 mi
5:30 AM39 °FFog.3 mph100%30.07 "Hg0 mi
5:00 AM39 °FFog.3 mph100%30.07 "Hg0 mi
4:30 AM37 °FFog.2 mph100%30.07 "Hg0 mi
4:00 AM39 °FFog.2 mph93%30.07 "Hg0 mi
3:30 AM39 °FFog.1 mph93%30.07 "Hg0 mi
3:00 AM37 °FFog.2 mph100%30.07 "Hg1 mi
2:30 AM37 °FFog.No wind100%30.07 "Hg2 mi
2:00 AM37 °FFog.1 mph93%30.07 "Hg3 mi
1:30 AM37 °FPartly cloudy.No wind100%30.07 "Hg5 mi
1:00 AM39 °FPartly cloudy.1 mph93%30.07 "Hg5 mi
12:30 AM39 °FPassing clouds.No wind93%30.07 "Hg5 mi
12:00 AM39 °FFog.No wind100%30.07 "Hg5 mi
11:30 PM
Sat, Oct 22
39 °FFog.2 mph93%30.07 "Hg5 mi
11:00 PM39 °FFog.1 mph93%30.07 "Hg5 mi
10:30 PM37 °FFog.3 mph100%30.07 "Hg3 mi
10:00 PM37 °FFog.1 mph100%30.07 "Hg3 mi
9:30 PM39 °FFog.1 mph100%30.07 "HgN/A
9:00 PM41 °FFog.2 mph93%30.07 "HgN/A
8:30 PM41 °FFog.3 mph100%30.07 "HgN/A
8:00 PM39 °FFog.No wind100%30.07 "HgN/A
7:30 PM41 °FFog.2 mph93%30.04 "HgN/A
7:00 PM43 °FFog.No wind93%30.04 "HgN/A
6:30 PM45 °FFog.1 mph93%30.01 "HgN/A
6:00 PM46 °FPassing clouds.No wind87%30.01 "HgN/A
5:30 PM50 °FPassing clouds.2 mph82%30.01 "HgN/A
5:00 PM50 °FPassing clouds.2 mph76%30.01 "HgN/A
4:30 PM50 °FPassing clouds.2 mph76%30.01 "HgN/A
4:00 PM50 °FPassing clouds.2 mph76%30.01 "HgN/A
3:30 PM50 °FPassing clouds.2 mph76%30.01 "HgN/A
3:00 PM48 °FScattered clouds.5 mph82%30.04 "HgN/A
2:30 PM48 °FScattered clouds.2 mph82%30.04 "HgN/A
2:00 PM45 °FPassing clouds.2 mph87%30.04 "HgN/A
1:30 PM45 °FScattered clouds.2 mph87%30.04 "Hg5 mi
1:00 PM45 °FPartly sunny.2 mph87%30.07 "Hg5 mi
12:30 PM41 °FPartly sunny.1 mph93%30.07 "Hg5 mi
12:00 PM39 °FPartly sunny.1 mph93%30.07 "Hg4 mi
11:30 AM39 °FPartly sunny.1 mph93%30.07 "Hg4 mi
11:00 AM37 °FFog.No wind100%30.07 "Hg3 mi
Weather by CustomWeather, © 2016

See weather overviewHow to use our weather pages